Vorticity
nan nan nan nan nan nan nan nan nan nan nan nan nan nan nan nan nan nan nan nan nan nan nan nan nan nan nan nan nan nan nan nan nan nan nan nan nan nan nan nan nan nan nan nan nan
nan 6 6 6 6 6 6 6 6 6 6 6 6 5 6 9 20 17 6 3 2 5 13 11 11 10 10 7 7 6 4 3 5 7 5 8 3 1 11 9 4 -0 12 17 nan
nan 6 6 6 6 6 6 6 6 6 7 8 7 7 7 15 19 7 6 3 5 8 9 8 9 11 11 10 8 2 -0 6 7 2 6 6 4 11 9 4 9 10 8 9 nan
nan 6 6 6 6 6 6 6 6 6 8 9 8 8 15 17 13 10 4 3 7 13 11 9 9 9 11 11 6 5 7 7 4 6 9 7 7 9 4 2 18 17 8 6 nan
nan 7 7 7 6 6 7 6 7 6 8 9 9 10 18 14 6 8 4 3 7 10 8 9 11 9 7 6 8 12 11 8 11 8 4 7 7 9 8 7 9 6 11 11 nan
nan 7 7 6 6 6 7 8 7 8 12 12 11 13 12 10 5 3 3 8 10 6 7 8 7 8 13 9 7 7 9 13 11 9 8 7 6 8 6 9 6 6 8 9 nan
nan 7 7 7 7 7 7 7 8 15 18 16 11 10 7 8 7 4 7 8 10 8 6 7 7 5 7 11 7 5 6 11 11 10 6 9 10 10 1 9 8 7 11 9 nan
nan 7 7 7 7 7 7 9 14 16 16 14 7 6 12 7 6 11 9 8 9 8 6 6 9 8 6 7 8 11 9 9 13 11 11 9 6 11 8 6 8 5 6 13 nan
nan 7 7 7 7 7 8 13 18 11 10 8 4 5 12 7 3 7 10 9 8 10 8 9 9 8 9 8 11 11 7 7 13 15 12 8 8 6 12 12 5 5 11 8 nan
nan 8 7 7 7 7 14 24 16 11 6 3 7 8 -3 -1 9 11 13 9 7 10 8 7 4 7 6 6 2 4 11 10 8 12 12 7 8 7 10 17 10 10 8 7 nan
nan 9 8 7 7 9 22 23 12 8 2 6 8 8 -1 9 16 14 8 8 10 5 4 4 4 3 6 6 6 10 9 7 7 11 13 11 9 8 8 8 10 11 6 11 nan
nan 9 9 8 10 17 19 11 9 6 11 12 9 7 9 8 14 10 5 6 3 6 12 7 3 10 11 9 11 10 11 11 9 8 14 13 9 10 10 7 11 10 11 10 nan
nan 9 9 8 16 18 13 8 7 10 10 13 10 10 13 8 7 8 8 6 6 6 8 12 14 12 10 10 15 11 9 9 10 16 15 12 16 13 11 10 10 8 8 9 nan
nan 8 7 18 18 11 7 3 10 11 11 12 10 13 5 8 7 9 9 5 5 5 8 18 7 5 11 15 14 10 13 11 9 12 13 12 16 14 15 5 5 6 9 6 nan
nan 8 8 16 14 10 5 9 14 9 10 7 7 6 8 6 12 11 6 9 0 7 10 6 10 14 12 10 13 15 11 11 13 12 9 9 13 18 21 5 6 7 7 8 nan
nan 7 16 16 7 5 6 12 12 7 10 7 2 0 13 13 8 12 12 10 6 4 4 15 22 8 9 10 11 14 18 15 16 18 16 20 17 18 19 18 12 10 10 10 nan
nan 13 18 7 8 7 12 11 8 13 6 4 4 5 7 12 9 8 11 9 10 9 6 17 11 10 9 17 22 8 10 16 17 14 20 18 -0 15 18 20 23 25 14 12 nan
nan 20 13 7 9 11 11 8 8 10 7 5 3 12 12 5 7 8 12 13 10 9 11 10 5 0 11 17 9 15 17 8 12 8 12 8 15 11 7 14 12 18 17 13 nan
nan 16 6 8 10 9 9 6 5 7 7 4 12 16 9 7 6 4 11 11 5 10 16 15 5 1 10 13 12 12 17 11 14 11 8 14 20 2 8 10 10 9 11 8 nan
nan 10 12 7 9 8 8 9 8 7 8 10 13 5 1 6 8 8 14 9 4 10 15 11 6 9 15 18 9 13 8 5 4 9 15 12 4 6 14 11 12 11 8 9 nan
nan 9 9 8 10 12 4 10 12 7 10 9 8 5 6 9 7 10 13 4 4 10 14 15 7 1 11 8 14 14 3 5 11 7 7 5 -1 9 11 15 15 12 10 11 nan
nan 12 7 9 10 9 10 8 9 8 10 8 9 12 7 7 10 10 8 7 6 10 16 13 11 7 8 14 14 6 8 9 10 5 14 12 -1 9 14 17 13 10 10 10 nan
nan 11 10 7 9 8 11 7 7 9 7 10 10 8 7 8 10 8 6 8 3 9 11 12 10 13 14 8 1 2 11 14 10 9 8 12 5 8 12 13 11 10 9 9 nan
nan 13 10 7 8 6 7 12 11 11 9 8 9 9 10 10 8 1 7 5 7 18 9 9 7 7 1 4 8 4 6 11 10 9 10 9 6 4 9 12 11 9 10 9 nan
nan 6 9 13 7 6 10 8 8 12 13 9 10 5 7 7 5 5 5 6 16 14 5 8 8 7 9 14 12 10 9 9 7 8 4 5 12 8 11 17 16 10 9 8 nan
nan 12 6 10 10 11 8 6 10 12 11 9 4 5 10 8 8 7 6 9 7 -4 7 14 9 8 19 19 8 11 14 13 11 12 10 10 12 7 13 18 16 11 8 8 nan
nan nan nan nan nan nan nan nan nan nan nan nan nan nan nan nan nan nan nan nan nan nan nan nan nan nan nan nan nan nan nan nan nan nan nan nan nan nan nan nan nan nan nan nan nan
CAPE
2 4 5 4 4 5 3 5 5 4 3 3 4 4 5 9 0 0 0 0 0 0 0 0 0 0 0 0 0 0 52 192 428 604 596 674 655 596 404 568 245 24 101 236 565
5 3 2 2 3 3 3 3 2 4 5 4 5 6 4 1 0 0 0 0 0 0 0 0 0 0 0 0 0 0 0 5 191 380 559 620 682 589 257 454 364 130 284 620 656
2 2 2 2 2 2 2 5 6 3 4 7 5 4 5 0 0 0 0 0 0 0 0 0 0 0 0 0 0 0 0 0 0 88 331 637 727 626 392 518 553 354 318 974 811
1 1 1 1 2 2 3 4 4 4 7 8 9 3 0 0 0 0 0 0 0 0 0 0 0 0 0 0 0 0 0 0 0 0 212 416 609 632 488 612 588 285 325 1160 1023
3 2 2 2 2 2 1 2 2 2 5 5 4 1 0 0 0 0 0 0 0 0 0 0 0 0 0 0 0 0 0 0 0 0 3 186 445 508 489 501 162 56 364 1228 1220
4 3 2 1 0 0 0 0 1 1 3 4 1 0 0 0 0 0 0 0 0 0 0 0 0 0 0 0 0 0 0 0 0 0 0 0 26 279 424 427 169 111 154 1050 1304
2 2 2 1 0 0 0 0 0 0 0 0 0 0 0 0 0 0 0 0 0 0 0 0 0 0 0 0 0 0 0 0 0 0 0 0 4 14 176 226 201 254 415 732 1243
3 2 1 1 0 0 0 0 0 0 0 0 0 0 0 0 0 0 0 0 0 0 0 0 0 0 0 0 0 0 0 0 0 0 0 0 0 0 52 272 99 267 412 610 1164
1 1 1 0 0 0 0 0 0 0 0 0 0 0 0 0 0 0 0 0 0 0 0 0 0 0 0 0 0 0 0 0 0 0 0 0 0 0 0 309 141 285 336 678 1149
1 0 0 0 0 0 0 0 0 0 0 0 0 0 0 0 0 0 0 0 0 0 0 0 0 0 0 0 0 0 0 0 0 0 0 0 0 0 0 242 200 390 295 324 684
1 1 0 0 0 0 0 0 0 0 0 0 0 0 0 0 0 0 0 0 0 0 0 0 0 0 2 4 0 0 0 0 0 0 0 9 14 19 0 257 270 478 440 310 368
1 0 0 0 0 0 0 0 0 0 0 0 0 0 0 0 0 0 0 0 0 0 1 7 17 33 10 30 13 0 0 0 0 0 1 6 20 28 37 216 220 561 584 348 360
0 0 0 0 0 0 0 0 0 0 0 0 0 0 0 0 0 0 0 0 0 0 3 13 37 7 13 33 48 25 2 1 1 0 0 92 43 44 39 264 181 260 465 380 323
0 0 0 0 0 0 0 0 0 0 0 0 0 0 0 0 0 0 0 0 0 6 1 20 29 121 94 82 75 61 61 27 18 15 105 167 88 65 71 301 292 340 234 152 178
0 0 0 0 0 0 0 0 0 0 0 0 0 0 0 0 0 0 0 0 0 0 15 9 5 95 192 87 214 157 135 58 106 56 146 167 137 20 33 96 269 428 366 145 25
0 0 0 0 0 0 0 0 0 0 0 0 0 0 0 0 0 0 0 0 2 0 16 8 3 101 197 199 327 296 164 173 191 237 72 5 65 31 47 6 55 274 519 335 195
0 0 0 0 0 0 0 0 0 0 0 0 0 0 0 0 0 0 0 11 1 3 2 0 6 38 37 217 192 359 201 70 187 268 174 2 0 32 171 136 47 130 349 361 56
0 0 0 0 0 0 0 0 0 0 0 0 0 0 0 0 0 0 0 0 0 0 11 1 8 1 21 127 110 240 158 95 26 35 22 120 221 2 0 0 0 0 0 0 0
0 0 0 0 0 0 0 0 0 0 0 0 0 0 0 0 0 0 0 0 0 0 0 4 6 8 2 32 15 91 68 18 3 3 2 2 24 2 0 0 0 0 0 0 0
0 0 0 0 0 0 0 0 0 0 0 0 0 0 0 0 0 0 0 0 0 0 0 6 3 3 3 17 0 5 27 23 19 193 41 0 3 2 0 0 0 0 0 0 0
0 0 0 0 0 0 0 0 0 0 0 0 0 0 0 0 0 0 0 0 0 0 0 0 6 0 12 3 4 12 32 2 17 9 116 24 0 0 0 0 0 0 0 0 0
0 0 0 0 0 0 0 0 0 0 0 0 0 0 0 0 0 0 0 0 0 0 0 0 0 0 0 0 0 0 0 6 19 10 40 0 0 0 0 0 0 0 0 0 0
0 0 0 0 0 0 0 0 0 0 0 0 0 0 0 0 0 0 0 0 0 0 0 0 0 0 0 0 0 0 4 0 0 0 0 18 0 0 0 0 0 0 0 0 0
0 0 0 0 0 0 0 0 0 0 0 0 0 0 0 0 0 0 0 0 0 0 0 0 0 0 0 0 0 0 0 0 0 9 0 0 1 0 0 0 0 0 0 0 0
0 0 0 0 0 0 0 0 0 0 0 0 0 0 0 0 0 0 0 0 0 0 0 0 0 0 0 0 0 0 0 0 0 0 0 0 0 0 0 0 0 0 0 0 0
0 0 0 0 0 0 0 0 0 0 0 0 0 0 0 0 0 0 0 0 0 0 0 0 0 0 0 0 0 0 0 0 0 0 0 0 0 0 0 0 0 0 0 0 0
0 0 0 0 0 0 0 0 0 0 0 0 0 0 0 0 0 0 0 0 0 0 0 0 0 0 0 0 0 0 0 0 0 0 0 0 0 0 0 0 0 0 0 0 0